www.pogodaiklimat.ru

Погода и климат >> Архив погоды >> Индия >> Махараштра >> Нагпур


ПОГОДА в Нагпуре

  • Прогноз погоды в Нагпуре
  • Монитор погоды в Нагпуре

АРХИВ ПОГОДЫ в Нагпуре

Время (UTC), дата Ветер
(напр.,м/с)
 
Видим.   Явления Облачность Т
(С)
Тd
(С)
f
(%)
Тe
(С)
Тes
(С)
Комфортность P
(гПа)
Po
(гПа)
Тmin
(С)
Tmax
(С)
R
(мм)
R24
(мм)
S
(см)
09 12.07 З 5 4000 м мгла 8/6 600 м
[Cu Sc Ac trans]
+35.2 +23.1 50 +46 +48 опасность
перегрева
1002.6 968.7
12 12.07 З 2 2000 м мгла 9/4 600 м
[Sc Ac trans]
+34.0 +21.7 49 +42 +43 опасность
перегрева
1001.8 967.8 +35.7
15 12.07 ЮЗ 3 2000 м мгла 6/3 600 м
[Sc Ac trans]
+30.2 +22.9 65 +40 +40 очень
душно
1004.4 969.9
18 12.07 Ю 2 2000 м мгла 5/3 600 м
[Sc Ac trans]
+28.4 +23.1 73 +38 +38 очень
душно
1005.6 970.9
21 12.07 Ю 2 2000 м мгла 6/3 600 м
[Sc Ac trans]
+27.4 +24.2 83 +38 +38 очень
душно
1004.3 969.5
00 13.07 Ю 2 2000 м мгла 4/1 600 м
[Sc Ac trans]
+26.6 +24.0 86 +37 +37 очень
душно
1004.8 969.9
03 13.07 З 4 4000 м мгла 6/1 600 м
[Sc Ac trans]
+29.4 +23.9 72 +40 +44 очень
душно
1006.3 971.7 +25.1
06 13.07 З 6 4000 м 6/5 600 м
[Cu Sc Ac trans]
+33.6 +22.6 53 +43 +47 опасность
перегрева
1005.5 971.4
09 13.07 З 4 4000 м мгла 6/5 600 м
[Cu Sc Ac trans]
+36.0 +22.0 44 +44 +49 опасность
перегрева
1003.6 969.8
12 13.07 З 7 4000 м мгла 6/5 600 м
[Cu Sc Ac trans]
+35.4 +20.2 41 +41 +42 опасность
перегрева
1001.9 968.1 +36.8
15 13.07 З 3 2000 м мгла 6/5 600 м
[Cu Sc Ac trans]
+32.2 +22.9 58 +42 +42 опасность
перегрева
1003.7 969.5
18 13.07 З 3 2000 м мгла 6/4 600 м
[Sc Ac trans]
+28.6 +23.1 72 +38 +38 очень
душно
1004.7 970.0
21 13.07 З 4 2000 м мгла 6/4 600 м
[Sc Ac trans]
+28.6 +22.4 69 +37 +37 очень
душно
1003.3 968.7
00 14.07 З 4 2000 м мгла 6/4 600 м
[Sc Ac trans]
+28.2 +22.6 72 +37 +37 очень
душно
1003.7 969.0
03 14.07 З 5 4000 м мгла 8/3 600 м
[Sc Ac trans]
+29.4 +23.3 70 +40 +42 очень
душно
1005.7 971.1 +25.9
06 14.07 З 5 4000 м мгла 5/5 600 м
[Cu Sc]
+34.0 +23.0 53 +44 +51 опасность
перегрева
1004.6 970.5
09 14.07 З 4 4000 м мгла 8/8 600 м
[Cu Sc]
+36.4 +21.9 43 +44 +47 опасность
перегрева
1001.6 967.9
12 14.07 З 3 4000 м мгла 8/6 600 м
[Cb cap Ac trans]
+32.2 +23.6 61 +44 +44 опасность
перегрева
1001.6 967.4 +37.1
15 14.07 СЗ 2 2000 м мгла 5/3 600 м
[Sc Ac trans]
+30.4 +21.8 60 +39 +39 очень
душно
1002.6 968.2
18 14.07 Ю 1 2000 м мгла 5/3 600 м
[Sc Ac trans]
+27.4 +23.6 80 +37 +37 очень
душно
1003.1 968.4
21 14.07 Ю 13 2000 м мгла 5/3 600 м
[Sc Ac trans]
+27.0 +22.9 78 +36 +36 очень
душно
1002.0 967.2
00 15.07 Ю 2 2000 м мгла 6/4 600 м
[Sc Ac trans]
+26.0 +23.1 84 +35 +35 очень
душно
1002.3 967.4
03 15.07 З 2 4000 м мгла 3/0 600 м
[Ac trans]
+29.2 +22.4 67 +38 +45 очень
душно
1003.6 969.0 +24.8
06 15.07 З 4 4000 м мгла 6/6 600 м
[Sc diur, vesp]
+33.6 +22.9 54 +44 +49 опасность
перегрева
1003.1 969.0
09 15.07 З 4 4000 м мгла 6/6 600 м
[Cu Sc]
+36.0 +21.0 42 +43 +47 опасность
перегрева
1000.8 967.1
12 15.07 З 4 4000 м мгла 6/6 600 м
[Cu Sc]
+35.4 +20.2 41 +41 +42 опасность
перегрева
999.1 965.4 +37.1
15 15.07 З 3 4000 м мгла 4/1 600 м
[Sc Ac trans Ci fib]
+30.4 +21.5 59 +38 +38 очень
душно
1001.3 967.0
18 15.07 СЗ 2 4000 м мгла 4/1 600 м
[Sc Ac trans Ci fib]
+29.8 +21.5 61 +38 +38 очень
душно
1003.4 968.9
21 15.07 З 2 4000 м мгла 4/1 600 м
[Sc Ac trans Ci fib]
+29.4 +21.7 63 +37 +37 очень
душно
1002.1 967.6
00 16.07 З 2 4000 м мгла 4/1 600 м
[Sc Ac trans]
+27.8 +21.5 69 +36 +36 очень
душно
1002.9 968.2
03 16.07 З 3 4000 м мгла 3/1 600 м
[Sc Ci fib]
+30.6 +21.7 59 +39 +45 очень
душно
1004.5 970.1 +26.0
06 16.07 СЗ 2 4000 м мгла 3/1 600 м
[Sc Ac trans Ci fib]
+34.6 +22.4 49 +44 +62 опасность
перегрева
1004.3 970.3
09 16.07 З 3 4000 м мгла 6/6 600 м
[Cu Sc]
+37.2 +21.1 39 +44 +49 опасность
перегрева
1002.1 968.5
12 16.07 З 5 4000 м мгла 3/3 600 м
[Cu Sc]
+37.0 +20.4 38 +43 +44 опасность
перегрева
1000.0 966.4 +37.9
15 16.07 З 3 2000 м мгла 5/3 600 м
[Sc Ac trans]
+31.2 +20.7 54 +38 +38 очень
душно
1002.4 968.1
18 16.07 СЗ 1 2000 м мгла 5/3 600 м
[Sc Ac trans]
+29.4 +22.0 64 +38 +38 очень
душно
1003.9 969.4
21 16.07 СЗ 2 2000 м мгла 4/1 600 м
[Sc Ac trans]
+28.8 +21.0 63 +36 +36 очень
душно
1002.9 968.3
00 17.07 СЗ 1 2000 м мгла 5/0 600 м
[Ac trans Ci fib]
+28.0 +21.4 67 +35 +35 очень
душно
1003.2 968.5
03 17.07 С 3 4000 м мгла 1/0
[Ac trans]
+31.0 +22.2 60 +40 +47 очень
душно
1004.2 969.8 +26.5
06 17.07 З 2 4000 м мгла 4/4 600 м
[Cu Sc]
+35.6 +23.3 49 +46 +59 опасность
перегрева
1003.2 969.4
09 17.07 З 3 4000 м мгла 5/5 600 м
[Cu Sc]
+38.2 +21.3 38 +45 +53 опасность
перегрева
1000.9 967.4
12 17.07 З 3 4000 м мгла 5/5 600 м
[Cu Sc]
+37.8 +19.2 34 +43 +43 опасность
перегрева
998.8 965.3 +38.6
15 17.07 З 1 4000 м мгла 3/0 600 м
[Ac trans]
+32.0 +21.0 52 +39 +39 очень
душно
1001.7 967.5
18 17.07 СЗ 2 2000 м мгла 3/0 600 м
[Ac trans]
+32.0 +21.7 55 +41 +41 опасность
перегрева
1002.4 968.2
21 17.07 ЮЗ 1 2000 м мгла 3/0
[Ac trans]
+30.2 +20.9 58 +38 +38 очень
душно
1001.4 967.0
00 18.07 СЗ 2 2000 м мгла 3/0
[Ac trans]
+29.2 +22.4 67 +38 +38 очень
душно
1001.7 967.2
03 18.07 С 3 4000 м мгла ясно +32.0 +21.0 52 +39 +46 очень
душно
1002.5 968.3 +28.0
06 18.07 С 1 4000 м мгла 5/5 600 м
[Cu Sc]
+36.4 +20.8 40 +43 +56 опасность
перегрева
1002.1 968.4
09 18.07 штиль 0 4000 м мгла 6/6 600 м
[Cb cap]
+37.2 +22.8 44 +47 +55 опасность
перегрева
999.1 965.6
12 18.07 СЗ 3 2000 м мгла 8/5 600 м
[Cb cap Ac trans]
+33.2 +22.7 54 +43 +43 опасность
перегрева
998.9 964.9 +38.4 0.0
15 18.07 В 2 2000 м мгла 9/5 600 м
[Cb cap As op]
+25.6 +22.6 84 +34 +34 очень
душно
1003.9 968.9 0.0
18 18.07 Ю 2 2000 м мгла {дождь} 10/5 450 м
[Cb cap As op]
+24.6 +23.7 95 +33 +33 очень
душно
1004.3 969.2 3
21 18.07 С 2 2000 м мгла 9/4 450 м
[Sc Ac trans]
+25.4 +23.9 91 +35 +35 очень
душно
1001.8 966.9 3
00 19.07 С 2 2000 м мгла 9/4 600 м
[Sc Ac trans]
+25.8 +24.1 90 +36 +36 очень
душно
1001.7 966.8 3
03 19.07 Ю 2 2000 м мгла 9/5 600 м
[Cb cap Ac trans]
+26.8 +24.8 89 +38 +40 очень
душно
1003.0 968.2 +23.3 3
06 19.07 ЮЗ 1 4000 м мгла 8/4 600 м
[Sc Ac trans]
+31.8 +24.7 66 +45 +54 опасность
перегрева
1003.0 968.8

 

Местоположение метеостанции Нагпур (Махараштра, Индия): широта 21.10 долгота 79.05 высота над уровнем моря 310 м.

В архиве по умолчанию представлена погода в Нагпуре за последнюю неделю. Архивные данные за месяц целиком и за предыдущие месяцы, начиная с января 2011 года, Вы можете получить, выбрав интересующий диапазон дат из раскрывающегося списка и нажав кнопку "Ввод!".


*Определитесь, кто Вы:
робот инопланетянин человек

Внимание! Время в таблицах - всемирное. Для получения местного времени необходимо прибавить поправку, которая равна 5.5 ч.

Смотрите также архив погоды в соседних городах и на ближайших метеорологических станциях:

Погода в Вардхе (Махараштра, Индия) (68 км)
Погода в Брамапури (Махараштра, Индия) (100 км)
Погода в Чхиндваре (Мадхья-Прадеш, Индия) (111 км)
Погода в Сеони (Мадхья-Прадеш, Индия) (121 км)
Погода в Яватмале (Махараштра, Индия) (122 км)
Погода в Гондии (Махараштра, Индия) (126 км)
Погода в Чандрапуре (Махараштра, Индия) (128 км)
Погода в Амравати (Махараштра, Индия) (133 км)
Погода в Бетуле (Мадхья-Прадеш, Индия) (144 км)
Погода в Пачмарае (Мадхья-Прадеш, Индия) (165 км)

Пояснения к столбцам:

Ветер - указаны скорость ветра в м/с - средняя за 10 мин, порывы в срок и между сроками (в фигурных скобках) и направление, откуда дует ветер: С - северный, СВ - северо-восточный, В - восточный, ЮВ - юго-восточный, Ю - южный, ЮЗ - юго-западный, З - западный, СЗ - северо-западный.
Видимость - горизонтальная дальность видимости в метрах или километрах. При видимости от 1 до 10 км при отсутствии осадков обычно наблюдается дымка, при ухудшении видимости до 1 км и менее - туман. В сухую погоду видимость может ухудшаться дымом, пылью или мглою.
Явления - указаны атмосферные явления, наблюдавшиеся в срок или в последний час перед сроком; фигурными скобками обозначены явления, наблюдавшиеся между сроками (за 1-3 часа до срока); квадратными скобками обозначены град или гололедные отложения с указанием их диаметра в мм.
Облачность - указаны через наклонную черту общая и нижняя облачность в баллах и высота нижней границы облаков в метрах; квадратными скобками обозначены формы облаков: Ci - перистые, Cs - перисто-слоистые, Cc - перисто-кучевые, Ac - высококучевые, As - высокослоистые, Sc - слоисто-кучевые, Ns - слоисто-дождевые, Cu - кучевые, Cb - кучево-дождевые. Подробнее классификацию облаков см. в Атласе облаков (PDF).
T - Температура воздуха - температура, измеренная на высоте 2 м над землей.
Td - Температура точки росы - температура, при понижении до которой содержащийся в воздухе водяной пар достигнет насыщения.
f - Относительная влажность воздуха - влажноcть воздуха, измеренная на высоте 2 м над землей.
Te - Эффективная температура - температура, которую ощущает одетый по сезону человек в тени. Характеристика душности погоды. При расчете учитывается влияние влажности воздуха и скорости ветра на теплоощущения человека.
Tes - Эффективная температура на солнце - температура, которую ощущает человек, с поправкой на солнечный нагрев. Характеристика знойности погоды. Зависит от высоты солнца над горизонтом, облачности и скорости ветра. Ночью, в пасмурную погоду, а также при ветре 12 м/с и более поправка равна нулю.
P - Атмосферное давление - приведенное к уровню моря атмосферное давление.
Po - Атмосферное давление - измеренное на уровне метеостанции атмосферное давление.
Tmin - Минимальная температура - минимум температуры воздуха на высоте 2 м над землей.
Tmax - Максимальная температура - максимум температуры воздуха на высоте 2 м над землей.
R - Количество осадков - Количество выпавших осадков за период времени, мм. При наведении курсора мыши на число - период времени, за который выпало указанное количество осадков.
R24 - Количество осадков - Количество выпавших осадков за 24 часа, мм.
S - Снежный покров - Высота снежного покрова, см. При наведении курсора мыши на число - состояние снежного покрова и степень покрытия местности в баллах.